New York, NY

7:34 PM EDT on April 27, 2017 (GMT -0400)
La Guardia

Weather History for KLGA - March, 2013

Change the Weather History Date:

Tuesday, March 12, 2013

  Actual Average Record
Temperature  
Mean Temperature 50 °F 41 °F  
Max Temperature 56 °F 48 °F 69 °F (2012)
Min Temperature 43 °F 33 °F 15 °F (1984)
Degree Days  
Heating Degree Days 15 24  
Month to date heating degree days 294 307  
Since 1 July heating degree days 3489 3736  
Cooling Degree Days 0 0  
Month to date cooling degree days 0 0  
Year to date cooling degree days 0 0  
Moisture  
Dew Point 46 °F    
Average Humidity 78    
Maximum Humidity 89    
Minimum Humidity 66    
Precipitation  
Precipitation 0.79 in 0.12 in 1.83 in (1962)
Month to date precipitation 1.17 1.43  
Year to date precipitation 7.01 7.36  
Snow  
Snow 0.00 in 0.10 in 7.40 in (1959)
Month to date snowfall 3.2 2.4  
Since 1 July snowfall 19.3 24.4  
Snow Depth 0.00 in    
Sea Level Pressure  
Sea Level Pressure 29.84 in    
Wind  
Wind Speed 16 mph (South)    
Max Wind Speed 35 mph    
Max Gust Speed 44 mph    
Visibility 7 miles    
Events Rain    
T = Trace of Precipitation, MM = Missing Value Source: NWS Daily Summary

Daily Weather History Graph

Daily Weather History Graph

Search for Another Location

Airport or City:

Trip Planner

Search our weather history database for the weather conditions in past years. The results will help you decide how hot, cold, wet, or windy it might be!

Date:

Astronomy

Mar. 12, 2013 Rise Set
Actual Time 7:11 AM EDT 6:59 PM EDT
Civil Twilight 6:44 AM EDT 7:26 PM EDT
Nautical Twilight 6:12 AM EDT 7:58 PM EDT
Astronomical Twilight 5:40 AM EDT 8:30 PM EDT
Moon 7:16 AM EDT (3/12) 8:12 PM EDT (3/12)
Length of Visible Light 12h 42m
Length of Day
11h 47m
New Moon, 1% of the Moon is Illuminated
Mar 12
New Moon
Mar 19
First Quarter
Mar 27
Full
Apr 3
Last Quarter
Apr 10
New

Hourly Weather History & Observations

Time (EDT) Temp. Windchill Dew Point Humidity Pressure Visibility Wind Dir Wind Speed Gust Speed Precip Events Conditions
12:41 AM 48.2 °F - 44.6 °F 87% 30.08 in 10.0 mi South 13.8 mph - N/A   Mostly Cloudy
12:51 AM 48.0 °F - 45.0 °F 89% 30.08 in 10.0 mi South 11.5 mph - N/A   Mostly Cloudy
1:51 AM 48.2 °F - 44.6 °F 87% 30.03 in 10.0 mi SSE 18.4 mph 24.2 mph N/A   Overcast
2:51 AM 50.0 °F - 45.0 °F 83% 30.02 in 10.0 mi South 15.0 mph 24.2 mph N/A   Overcast
3:51 AM 48.9 °F - 45.0 °F 86% 30.01 in 10.0 mi South 12.7 mph 18.4 mph N/A   Overcast
4:51 AM 48.9 °F - 44.1 °F 83% 29.99 in 10.0 mi South 15.0 mph 20.7 mph 0.00 in Rain Light Rain
5:51 AM 48.2 °F - 44.6 °F 87% 29.97 in 10.0 mi South 9.2 mph - N/A Rain Light Rain
6:51 AM 48.9 °F - 45.0 °F 86% 29.96 in 7.0 mi South 11.5 mph - 0.02 in Rain Light Rain
7:51 AM 48.9 °F - 45.0 °F 86% 29.95 in 7.0 mi South 11.5 mph 18.4 mph 0.03 in Rain Light Rain
8:51 AM 50.0 °F - 44.6 °F 82% 29.94 in 7.0 mi South 13.8 mph 19.6 mph N/A Rain Light Rain
9:51 AM 48.9 °F - 45.0 °F 86% 29.93 in 6.0 mi South 11.5 mph - 0.03 in Rain Light Rain
10:49 AM 50.0 °F - 46.4 °F 87% 29.90 in 6.0 mi South 15.0 mph 25.3 mph 0.04 in Rain Light Rain
10:51 AM 50.0 °F - 46.9 °F 89% 29.90 in 6.0 mi South 15.0 mph 25.3 mph 0.04 in Rain Light Rain
11:24 AM 50.0 °F - 46.4 °F 87% 29.88 in 2.5 mi South 15.0 mph 24.2 mph 0.06 in Rain Rain
11:51 AM 50.0 °F - 46.4 °F 87% 29.86 in 2.5 mi South 17.3 mph 27.6 mph N/A Rain Light Rain
12:51 PM 53.1 °F - 48.9 °F 86% 29.83 in 2.5 mi South 20.7 mph 36.8 mph 0.06 in Rain Rain
1:51 PM 53.1 °F - 50.0 °F 89% 29.78 in 2.5 mi SSE 25.3 mph 38.0 mph 0.10 in Rain Rain
2:34 PM 51.8 °F - 48.2 °F 88% 29.74 in 2.0 mi SSE 23.0 mph 34.5 mph 0.08 in Rain Rain
2:51 PM 53.1 °F - 50.0 °F 89% 29.72 in 2.0 mi SSE 28.8 mph 42.6 mph 0.11 in Rain Light Rain
3:18 PM 53.6 °F - 50.0 °F 88% 29.70 in 5.0 mi South 27.6 mph 38.0 mph 0.01 in Rain Light Rain
3:28 PM 53.6 °F - 51.8 °F 94% 29.69 in 1.8 mi South 25.3 mph 36.8 mph 0.04 in Rain Heavy Rain
3:42 PM 53.6 °F - 50.0 °F 88% 29.68 in 2.0 mi SSE 28.8 mph 40.3 mph 0.10 in Rain Light Rain
3:51 PM 53.1 °F - 50.0 °F 89% 29.68 in 2.0 mi SSE 20.7 mph 40.3 mph 0.11 in Rain Light Rain
4:40 PM 53.6 °F - 50.0 °F 88% 29.67 in 7.0 mi South 21.9 mph 33.4 mph 0.13 in Rain Light Rain
4:51 PM 53.1 °F - 50.0 °F 89% 29.67 in 7.0 mi South 21.9 mph 32.2 mph 0.13 in   Overcast
5:28 PM 51.8 °F - 50.0 °F 94% 29.67 in 4.0 mi South 19.6 mph 26.5 mph 0.00 in Rain Light Rain
5:51 PM 53.1 °F - 50.0 °F 89% 29.68 in 2.0 mi South 9.2 mph 17.3 mph 0.00 in Rain Light Rain
6:16 PM 53.6 °F - 51.8 °F 94% 29.70 in 7.0 mi South 9.2 mph 18.4 mph 0.00 in   Mostly Cloudy
6:51 PM 55.0 °F - 52.0 °F 89% 29.72 in 10.0 mi SSW 9.2 mph - 0.00 in   Mostly Cloudy
7:27 PM 53.6 °F - 46.4 °F 77% 29.75 in 10.0 mi NW 18.4 mph - 0.01 in   Mostly Cloudy
7:51 PM 52.0 °F - 44.1 °F 74% 29.76 in 10.0 mi NW 19.6 mph - 0.01 in   Mostly Cloudy
8:13 PM 51.8 °F - 42.8 °F 71% 29.76 in 10.0 mi NW 19.6 mph 24.2 mph N/A   Mostly Cloudy
8:51 PM 50.0 °F - 39.9 °F 68% 29.80 in 10.0 mi NW 15.0 mph - N/A   Mostly Cloudy
9:51 PM 46.4 °F 39.8 °F 37.4 °F 71% 29.82 in 10.0 mi NW 16.1 mph 25.3 mph N/A   Mostly Cloudy
10:51 PM 45.0 °F 37.6 °F 36.0 °F 71% 29.82 in 10.0 mi NW 17.3 mph 24.2 mph N/A   Partly Cloudy
11:51 PM 44.1 °F 38.1 °F 35.1 °F 71% 29.83 in 10.0 mi NW 11.5 mph - N/A   Partly Cloudy